Tracking 35331 objects as of 15-Sep-2026
HD Live streaming from Space Station
objects crossing your sky now

STARLINK-36142

Track STARLINK-36142 now!
10-day predictions
STARLINK-36142 is classified as:


NORAD ID: 66981
Int'l Code: 2025-288Y
Launch date: December 8, 2025
Source: United States (US)
Launch site: AIR FORCE EASTERN TEST RANGE (AFETR)
Your satellite tracking list
Your tracking list is empty




NASA's NSSDC Master Catalog

Two Line Element Set (TLE):
1 66981U 25288Y   26258.42609405  .00017133  00000-0  63035-3 0  9993
2 66981  43.0030  32.0485 0001305 267.8847  92.1855 15.27596550 44301
Source of the keplerian elements: AFSPC